Location: Mentone
(34.5413°N, 85.5351°W)
Time: 10:21:04
(UTC-06:00)

Tiros 1 despin weight - All Passes

Search period start: 24 February 2018 00:00
Search period end: 06 March 2018 00:00
Orbit: 595 x 643 km, 48.2° (Epoch: 24 February)

Date Brightness Start Highest point End Pass type
(mag) Time Alt. Az. Time Alt. Az. Time Alt. Az.
24 Feb - 01:25:14 10° WSW 01:27:02 12° SW 01:28:49 10° SSW night (unlit)
24 Feb - 15:27:45 10° SSW 15:31:43 29° SE 15:35:38 10° ENE daylight
24 Feb - 17:08:47 10° WSW 17:13:09 46° NNW 17:17:29 10° NE daylight
24 Feb - 18:52:40 10° NW 18:55:34 17° NNW 18:58:27 10° NNE visible
24 Feb - 20:35:59 10° NNW 20:38:34 15° N 20:41:07 10° NE visible
24 Feb - 22:17:06 10° NW 22:21:09 34° NNE 22:25:11 10° E night (unlit)
24 Feb - 23:58:36 10° WNW 00:02:45 42° SW 00:06:55 10° SSE night (unlit)
25 Feb - 15:43:53 10° SW 15:48:24 63° SE 15:52:53 10° ENE daylight
25 Feb - 17:26:19 10° W 17:30:14 28° NNW 17:34:07 10° NE daylight
25 Feb - 19:10:32 10° NW 19:12:58 14° N 19:15:22 10° NNE visible
25 Feb - 20:52:46 10° NNW 20:55:55 19° NNE 20:59:03 10° ENE visible
25 Feb - 22:33:45 10° NW 22:38:10 62° NE 22:42:31 10° ESE night (unlit)
26 Feb - 00:16:12 10° W 00:19:22 19° SW 00:22:31 10° S night (unlit)
26 Feb - 14:20:43 10° S 14:24:00 19° SE 14:27:16 10° E daylight
26 Feb - 16:00:41 10° WSW 16:05:15 66° NW 16:09:45 10° NE daylight
26 Feb - 17:44:10 10° WNW 17:47:28 19° NNW 17:50:43 10° NNE daylight
26 Feb - 19:28:00 10° NNW 19:30:24 14° N 19:32:46 10° NE visible
26 Feb - 21:09:22 10° NW 21:13:09 26° NNE 21:16:55 10° E visible
26 Feb - 22:50:36 10° WNW 22:54:59 65° SW 22:59:21 10° SE night (unlit)
27 Feb - 14:36:18 10° SSW 14:40:37 41° SE 14:44:54 10° ENE daylight
27 Feb - 16:17:59 10° W 16:22:13 36° NNW 16:26:25 10° NE daylight
27 Feb - 18:02:06 10° NW 18:04:48 15° N 18:07:28 10° NNE visible
27 Feb - 19:44:58 10° NNW 19:47:48 16° NNE 19:50:36 10° NE visible
27 Feb - 21:25:59 10° NW 21:30:15 43° NNE 21:34:28 10° ESE visible
27 Feb - 23:07:49 10° WNW 23:11:40 30° SW 23:15:31 10° SSE night (unlit)
28 Feb - 13:14:23 10° SSE 13:16:19 12° SE 13:18:15 10° ESE daylight
28 Feb - 14:52:45 10° SW 14:57:21 86° SE 15:01:56 10° NE daylight
28 Feb - 16:35:41 10° WNW 16:39:22 23° NNW 16:43:01 10° NNE daylight
28 Feb - 18:19:50 10° NNW 18:22:13 14° N 18:24:34 10° NNE visible
28 Feb - 20:01:38 10° NNW 20:05:06 21° NNE 20:08:32 10° ENE visible
28 Feb - 21:42:43 10° NW 21:47:10 84° NE 21:51:35 10° SE night (unlit)
28 Feb - 23:26:01 10° W 23:28:13 14° SW 23:30:25 10° SSW night (unlit)
01 Mar - 13:28:58 10° S 13:32:52 27° SE 13:36:43 10° ENE daylight
01 Mar - 15:09:47 10° WSW 15:14:16 50° NNW 15:18:41 10° NE daylight
01 Mar - 16:53:36 10° NW 16:56:39 17° NNW 16:59:40 10° NNE daylight
01 Mar - 18:37:03 10° NNW 18:39:38 15° N 18:42:11 10° NE visible
01 Mar - 20:18:14 10° NW 20:22:17 32° NNE 20:26:17 10° E visible
01 Mar - 21:59:41 10° WNW 22:03:56 46° SW 22:08:08 10° SSE night (unlit)
02 Mar - 13:44:59 10° SW 13:49:31 57° SE 13:54:01 10° ENE daylight
02 Mar - 15:27:16 10° W 15:31:19 30° NNW 15:35:19 10° NE daylight
02 Mar - 17:11:29 10° NW 17:14:01 15° N 17:16:33 10° NNE daylight
02 Mar - 18:53:52 10° NNW 18:57:00 18° NNE 19:00:06 10° ENE visible
02 Mar - 20:34:53 10° NW 20:39:18 57° NE 20:43:39 10° ESE visible
02 Mar - 22:17:11 10° W 22:20:33 21° SW 22:23:53 10° S night (unlit)
03 Mar - 12:22:01 10° S 12:25:08 18° SE 12:28:15 10° E daylight
03 Mar - 14:01:43 10° WSW 14:06:20 71° NW 14:10:54 10° NE daylight
03 Mar - 15:45:05 10° WNW 15:48:31 20° NNW 15:51:56 10° NNE daylight
03 Mar - 17:29:00 10° NNW 17:31:27 14° N 17:33:53 10° NE daylight
03 Mar - 19:10:30 10° NW 19:14:16 25° NNE 19:17:58 10° E visible
03 Mar - 20:51:42 10° WNW 20:56:09 71° SW 21:00:32 10° SE visible
04 Mar - 12:37:26 10° SSW 12:41:44 38° SE 12:46:00 10° ENE daylight
04 Mar - 14:18:58 10° W 14:23:19 39° NNW 14:27:36 10° NE daylight
04 Mar - 16:03:01 10° NW 16:05:51 16° N 16:08:39 10° NNE daylight
04 Mar - 17:46:02 10° NNW 17:48:51 16° N 17:51:40 10° NE daylight
04 Mar - 19:27:06 10° NW 19:31:22 41° NNE 19:35:33 10° E visible
04 Mar - 21:08:51 10° WNW 21:12:51 33° SW 21:16:47 10° SSE visible
05 Mar - 11:15:58 10° SSE 11:17:27 11° SE 11:18:56 10° ESE daylight
05 Mar - 12:53:49 10° SW 12:58:28 79° SE 13:03:04 10° NE daylight
05 Mar - 14:36:36 10° WNW 14:40:25 25° NNW 14:44:13 10° NNE daylight
05 Mar - 16:20:46 10° NW 16:23:15 14° N 16:25:44 10° NNE daylight
05 Mar - 18:02:44 10° NNW 18:06:11 21° NNE 18:09:35 10° ENE visible
05 Mar - 19:43:49 10° NW 19:48:18 77° NE 19:52:44 10° ESE visible
05 Mar - 21:26:51 10° W 21:29:24 15° SW 21:31:57 10° SSW visible
